Powrót do katalogu

COSMOS 397 DEB

AktywnyLEO
NORAD 5014·DEBRIS·🇷🇺 Russia

Wystrzelony Feb 25, 1971 z Baikonur Cosmodrome

Loading…

Następne Przeloty (najbliższe 24 godziny)

TLE

ŚwieżeSource: Space-Track

Epoka: Sep 13, 2026, 23:48 UTC

1 05014U 71015H   26256.99234991  .00001985  00000-0  49424-3 0  9990
2 05014  65.5762  93.9263 0567235 220.2473 135.5283 13.86495909688826

Śledź COSMOS 397 DEB w czasie rzeczywistym z AllMySat

Download on the App Store